Time,TemperatureF,DewpointF,PressureIn,WindDirection,WindDirectionDegrees,WindSpeedMPH,WindSpeedGustMPH,Humidity,HourlyPrecipIn,Conditions,Clouds,dailyrainin,SoftwareType,DateUTC
2013-02-23 00:12:00,45.1,44.0,29.98,North,9,0.0,-999.0,95,-99.99,,,0.00,weatherlink.com 1.10,2013-02-23 06:12:00,
2013-02-23 00:27:00,45.0,44.0,29.96,NNE,17,0.0,-999.0,95,-99.99,,,0.00,weatherlink.com 1.10,2013-02-23 06:27:00,
2013-02-23 00:42:00,45.0,44.0,29.98,North,10,4.0,-999.0,95,-99.99,,,0.02,weatherlink.com 1.10,2013-02-23 06:42:00,
2013-02-23 00:58:00,45.1,44.0,29.95,NNE,31,5.0,-999.0,95,-99.99,,,0.05,weatherlink.com 1.10,2013-02-23 06:58:00,
2013-02-23 01:12:00,44.9,44.0,29.95,North,360,4.0,-999.0,96,-99.99,,,0.06,weatherlink.com 1.10,2013-02-23 07:12:00,
2013-02-23 01:28:00,44.9,44.0,29.94,NNE,19,0.0,-999.0,96,-99.99,,,0.06,weatherlink.com 1.10,2013-02-23 07:28:00,
2013-02-23 01:42:00,45.0,44.0,29.94,NNE,13,2.0,-999.0,96,-99.99,,,0.06,weatherlink.com 1.10,2013-02-23 07:42:00,
2013-02-23 01:57:00,45.0,44.0,29.94,North,360,0.0,-999.0,96,-99.99,,,0.06,weatherlink.com 1.10,2013-02-23 07:57:00,
2013-02-23 02:12:00,45.0,44.0,29.93,North,360,0.0,-999.0,95,-99.99,,,0.07,weatherlink.com 1.10,2013-02-23 08:12:00,
2013-02-23 02:28:00,45.0,44.0,29.93,NNE,19,0.0,-999.0,95,-99.99,,,0.08,weatherlink.com 1.10,2013-02-23 08:28:00,
2013-02-23 02:43:00,45.1,44.0,29.94,NNE,17,0.0,-999.0,95,-99.99,,,0.12,weatherlink.com 1.10,2013-02-23 08:43:00,
2013-02-23 02:58:00,45.0,44.0,29.93,NNE,27,0.0,-999.0,96,-99.99,,,0.18,weatherlink.com 1.10,2013-02-23 08:58:00,
2013-02-23 03:12:00,45.1,44.0,29.93,NNE,27,0.0,-999.0,96,-99.99,,,0.22,weatherlink.com 1.10,2013-02-23 09:12:00,
2013-02-23 03:27:00,45.0,44.0,29.92,NNE,16,2.0,-999.0,96,-99.99,,,0.22,weatherlink.com 1.10,2013-02-23 09:27:00,
2013-02-23 03:42:00,45.1,44.0,29.91,NNE,13,0.0,-999.0,96,-99.99,,,0.23,weatherlink.com 1.10,2013-02-23 09:42:00,
2013-02-23 03:58:00,45.1,44.0,29.91,North,11,3.0,-999.0,96,-99.99,,,0.23,weatherlink.com 1.10,2013-02-23 09:58:00,
2013-02-23 04:12:00,45.2,44.0,29.92,NNW,342,0.0,-999.0,96,-99.99,,,0.23,weatherlink.com 1.10,2013-02-23 10:12:00,
2013-02-23 04:27:00,45.3,44.0,29.91,NE,34,0.0,-999.0,96,-99.99,,,0.23,weatherlink.com 1.10,2013-02-23 10:27:00,
2013-02-23 04:42:00,45.4,44.0,29.91,North,355,4.0,-999.0,96,-99.99,,,0.24,weatherlink.com 1.10,2013-02-23 10:42:00,
2013-02-23 04:57:00,45.4,44.0,29.91,NE,43,0.0,-999.0,96,-99.99,,,0.26,weatherlink.com 1.10,2013-02-23 10:57:00,
2013-02-23 05:12:00,45.4,44.0,29.92,NNE,15,0.0,-999.0,96,-99.99,,,0.27,weatherlink.com 1.10,2013-02-23 11:12:00,
2013-02-23 05:28:00,45.5,45.0,29.93,NNE,15,0.0,-999.0,96,-99.99,,,0.27,weatherlink.com 1.10,2013-02-23 11:28:00,
2013-02-23 05:42:00,45.5,45.0,29.93,NNE,15,0.0,-999.0,96,-99.99,,,0.27,weatherlink.com 1.10,2013-02-23 11:42:00,
2013-02-23 05:57:00,45.5,45.0,29.93,NNE,15,0.0,-999.0,96,-99.99,,,0.27,weatherlink.com 1.10,2013-02-23 11:57:00,
2013-02-23 06:12:00,45.5,45.0,29.93,NNE,15,0.0,-999.0,96,-99.99,,,0.27,weatherlink.com 1.10,2013-02-23 12:12:00,
2013-02-23 06:29:00,45.5,45.0,29.93,NNE,15,0.0,-999.0,96,-99.99,,,0.27,weatherlink.com 1.10,2013-02-23 12:29:00,
2013-02-23 06:42:00,45.5,45.0,29.92,NNE,15,0.0,-999.0,96,-99.99,,,0.27,weatherlink.com 1.10,2013-02-23 12:42:00,
2013-02-23 06:57:00,45.5,45.0,29.93,NNE,15,0.0,-999.0,96,-99.99,,,0.27,weatherlink.com 1.10,2013-02-23 12:57:00,
2013-02-23 07:12:00,45.8,45.0,29.93,NNE,15,0.0,-999.0,96,-99.99,,,0.27,weatherlink.com 1.10,2013-02-23 13:12:00,
2013-02-23 07:27:00,45.9,45.0,29.93,NNE,15,2.0,-999.0,96,-99.99,,,0.27,weatherlink.com 1.10,2013-02-23 13:27:00,
2013-02-23 07:43:00,46.0,45.0,29.93,NNE,15,0.0,-999.0,96,-99.99,,,0.27,weatherlink.com 1.10,2013-02-23 13:43:00,
2013-02-23 07:57:00,46.2,45.0,29.93,NNE,15,0.0,-999.0,96,-99.99,,,0.27,weatherlink.com 1.10,2013-02-23 13:57:00,
2013-02-23 08:12:00,46.8,46.0,29.93,NNE,15,0.0,-999.0,96,-99.99,,,0.27,weatherlink.com 1.10,2013-02-23 14:12:00,
2013-02-23 08:27:00,46.7,45.0,29.93,NNE,15,0.0,-999.0,95,-99.99,,,0.27,weatherlink.com 1.10,2013-02-23 14:27:00,
2013-02-23 08:42:00,46.7,45.0,29.93,North,5,0.0,-999.0,94,-99.99,,,0.27,weatherlink.com 1.10,2013-02-23 14:42:00,
2013-02-23 08:57:00,46.8,46.0,29.93,North,5,0.0,-999.0,95,-99.99,,,0.27,weatherlink.com 1.10,2013-02-23 14:57:00,
2013-02-23 09:12:00,47.2,46.0,29.93,North,355,0.0,-999.0,95,-99.99,,,0.27,weatherlink.com 1.10,2013-02-23 15:12:00,
2013-02-23 09:27:00,47.4,46.0,29.92,NNE,16,0.0,-999.0,94,-99.99,,,0.27,weatherlink.com 1.10,2013-02-23 15:27:00,
2013-02-23 09:42:00,47.7,46.0,29.93,North,355,6.0,-999.0,94,-99.99,,,0.27,weatherlink.com 1.10,2013-02-23 15:42:00,
2013-02-23 09:57:00,47.8,46.0,29.93,NNE,13,0.0,-999.0,93,-99.99,,,0.27,weatherlink.com 1.10,2013-02-23 15:57:00,
2013-02-23 10:14:00,48.2,46.0,29.92,NNE,15,0.0,-999.0,93,-99.99,,,0.27,weatherlink.com 1.10,2013-02-23 16:14:00,
2013-02-23 10:29:00,48.5,46.0,29.93,NW,318,4.0,-999.0,92,-99.99,,,0.27,weatherlink.com 1.10,2013-02-23 16:29:00,
2013-02-23 10:42:00,48.4,46.0,29.93,NW,318,5.0,-999.0,92,-99.99,,,0.27,weatherlink.com 1.10,2013-02-23 16:42:00,
2013-02-23 10:57:00,48.6,46.0,29.94,NW,318,0.0,-999.0,91,-99.99,,,0.27,weatherlink.com 1.10,2013-02-23 16:57:00,
2013-02-23 11:12:00,49.1,47.0,29.93,NW,318,2.0,-999.0,91,-99.99,,,0.27,weatherlink.com 1.10,2013-02-23 17:12:00,
2013-02-23 11:27:00,49.2,47.0,29.92,NNW,338,4.0,-999.0,90,-99.99,,,0.27,weatherlink.com 1.10,2013-02-23 17:27:00,
2013-02-23 11:42:00,49.3,46.0,29.91,NNW,339,2.0,-999.0,89,-99.99,,,0.27,weatherlink.com 1.10,2013-02-23 17:42:00,
2013-02-23 11:57:00,49.6,46.0,29.91,NW,321,6.0,-999.0,88,-99.99,,,0.27,weatherlink.com 1.10,2013-02-23 17:57:00,
2013-02-23 12:12:00,49.9,46.0,29.91,NW,321,2.0,-999.0,87,-99.99,,,0.27,weatherlink.com 1.10,2013-02-23 18:12:00,
2013-02-23 12:27:00,50.5,47.0,29.91,NNW,333,2.0,-999.0,86,-99.99,,,0.27,weatherlink.com 1.10,2013-02-23 18:27:00,
2013-02-23 12:42:00,51.1,47.0,29.90,NNW,333,0.0,-999.0,85,-99.99,,,0.27,weatherlink.com 1.10,2013-02-23 18:42:00,
2013-02-23 12:57:00,50.4,46.0,29.90,NNW,333,0.0,-999.0,86,-99.99,,,0.27,weatherlink.com 1.10,2013-02-23 18:57:00,
2013-02-23 13:12:00,50.1,46.0,29.89,NNW,333,0.0,-999.0,87,-99.99,,,0.27,weatherlink.com 1.10,2013-02-23 19:12:00,
2013-02-23 13:27:00,50.2,47.0,29.89,NNW,333,0.0,-999.0,88,-99.99,,,0.27,weatherlink.com 1.10,2013-02-23 19:27:00,
2013-02-23 13:42:00,50.6,47.0,29.90,NNW,333,4.0,-999.0,87,-99.99,,,0.27,weatherlink.com 1.10,2013-02-23 19:42:00,
2013-02-23 13:57:00,50.5,47.0,29.89,NNW,333,0.0,-999.0,87,-99.99,,,0.27,weatherlink.com 1.10,2013-02-23 19:57:00,
2013-02-23 14:12:00,50.4,47.0,29.90,NNW,333,1.0,-999.0,87,-99.99,,,0.27,weatherlink.com 1.10,2013-02-23 20:12:00,
2013-02-23 14:27:00,49.9,47.0,29.89,North,9,4.0,-999.0,89,-99.99,,,0.27,weatherlink.com 1.10,2013-02-23 20:27:00,
2013-02-23 14:42:00,49.6,47.0,29.88,North,10,5.0,-999.0,90,-99.99,,,0.27,weatherlink.com 1.10,2013-02-23 20:42:00,
2013-02-23 14:57:00,49.5,47.0,29.88,NNW,340,5.0,-999.0,90,-99.99,,,0.27,weatherlink.com 1.10,2013-02-23 20:57:00,
2013-02-23 15:12:00,49.4,47.0,29.88,NNW,342,0.0,-999.0,91,-99.99,,,0.27,weatherlink.com 1.10,2013-02-23 21:12:00,
2013-02-23 15:27:00,49.4,47.0,29.87,NNW,342,6.0,-999.0,91,-99.99,,,0.27,weatherlink.com 1.10,2013-02-23 21:27:00,
2013-02-23 15:42:00,49.7,46.0,29.88,NNW,335,5.0,-999.0,88,-99.99,,,0.27,weatherlink.com 1.10,2013-02-23 21:42:00,
2013-02-23 15:57:00,49.8,46.0,29.87,NNW,333,0.0,-999.0,87,-99.99,,,0.27,weatherlink.com 1.10,2013-02-23 21:57:00,
2013-02-23 16:12:00,49.4,45.0,29.86,NNW,333,0.0,-999.0,86,-99.99,,,0.27,weatherlink.com 1.10,2013-02-23 22:12:00,
2013-02-23 16:27:00,49.4,45.0,29.86,NNW,333,0.0,-999.0,86,-99.99,,,0.27,weatherlink.com 1.10,2013-02-23 22:27:00,
2013-02-23 16:42:00,49.5,46.0,29.86,NNW,333,0.0,-999.0,86,-99.99,,,0.27,weatherlink.com 1.10,2013-02-23 22:42:00,
2013-02-23 16:57:00,49.6,46.0,29.85,NNW,333,0.0,-999.0,87,-99.99,,,0.27,weatherlink.com 1.10,2013-02-23 22:57:00,
2013-02-23 17:12:00,49.2,46.0,29.85,NNW,333,0.0,-999.0,88,-99.99,,,0.27,weatherlink.com 1.10,2013-02-23 23:12:00,
2013-02-23 17:27:00,48.5,46.0,29.86,NNW,333,0.0,-999.0,89,-99.99,,,0.27,weatherlink.com 1.10,2013-02-23 23:27:00,
2013-02-23 17:42:00,48.1,45.0,29.86,NNW,333,0.0,-999.0,90,-99.99,,,0.27,weatherlink.com 1.10,2013-02-23 23:42:00,
2013-02-23 17:57:00,47.2,45.0,29.87,NNW,333,0.0,-999.0,91,-99.99,,,0.27,weatherlink.com 1.10,2013-02-23 23:57:00,
2013-02-23 18:12:00,46.5,44.0,29.88,NNW,333,0.0,-999.0,92,-99.99,,,0.27,weatherlink.com 1.10,2013-02-24 00:12:00,
2013-02-23 18:27:00,46.0,44.0,29.88,NNW,333,0.0,-999.0,92,-99.99,,,0.27,weatherlink.com 1.10,2013-02-24 00:27:00,
2013-02-23 18:42:00,45.5,44.0,29.89,NNW,333,0.0,-999.0,93,-99.99,,,0.27,weatherlink.com 1.10,2013-02-24 00:42:00,
2013-02-23 18:57:00,45.3,43.0,29.90,NNW,333,0.0,-999.0,93,-99.99,,,0.27,weatherlink.com 1.10,2013-02-24 00:57:00,
2013-02-23 19:12:00,44.7,43.0,29.91,NNW,333,0.0,-999.0,93,-99.99,,,0.27,weatherlink.com 1.10,2013-02-24 01:12:00,
2013-02-23 19:27:00,44.2,43.0,29.92,NNW,333,0.0,-999.0,94,-99.99,,,0.27,weatherlink.com 1.10,2013-02-24 01:27:00,
2013-02-23 19:42:00,43.4,42.0,29.92,NNW,333,0.0,-999.0,94,-99.99,,,0.27,weatherlink.com 1.10,2013-02-24 01:42:00,
2013-02-23 19:57:00,43.1,42.0,29.92,NNW,333,0.0,-999.0,94,-99.99,,,0.27,weatherlink.com 1.10,2013-02-24 01:57:00,
2013-02-23 20:12:00,42.6,41.0,29.92,NNW,333,0.0,-999.0,95,-99.99,,,0.27,weatherlink.com 1.10,2013-02-24 02:12:00,
2013-02-23 20:27:00,42.1,41.0,29.93,NNW,333,0.0,-999.0,95,-99.99,,,0.27,weatherlink.com 1.10,2013-02-24 02:27:00,
2013-02-23 20:44:00,42.1,41.0,29.93,NNW,333,0.0,-999.0,95,-99.99,,,0.27,weatherlink.com 1.10,2013-02-24 02:44:00,
2013-02-23 20:57:00,42.1,41.0,29.92,NNW,333,0.0,-999.0,96,-99.99,,,0.27,weatherlink.com 1.10,2013-02-24 02:57:00,
2013-02-23 21:12:00,41.8,41.0,29.92,NNW,333,0.0,-999.0,96,-99.99,,,0.27,weatherlink.com 1.10,2013-02-24 03:12:00,
2013-02-23 21:27:00,41.3,40.0,29.92,NNW,333,0.0,-999.0,96,-99.99,,,0.27,weatherlink.com 1.10,2013-02-24 03:27:00,
2013-02-23 21:42:00,41.0,40.0,29.93,NNW,333,0.0,-999.0,96,-99.99,,,0.27,weatherlink.com 1.10,2013-02-24 03:42:00,
2013-02-23 21:57:00,40.6,40.0,29.92,NNW,333,0.0,-999.0,96,-99.99,,,0.27,weatherlink.com 1.10,2013-02-24 03:57:00,
2013-02-23 22:12:00,40.6,40.0,29.92,NNW,333,0.0,-999.0,96,-99.99,,,0.27,weatherlink.com 1.10,2013-02-24 04:12:00,
2013-02-23 22:27:00,39.8,39.0,29.93,NNW,333,0.0,-999.0,96,-99.99,,,0.27,weatherlink.com 1.10,2013-02-24 04:27:00,
2013-02-23 22:42:00,39.7,39.0,29.93,NNW,333,0.0,-999.0,96,-99.99,,,0.27,weatherlink.com 1.10,2013-02-24 04:42:00,
2013-02-23 22:57:00,38.8,38.0,29.93,NNW,333,0.0,-999.0,96,-99.99,,,0.27,weatherlink.com 1.10,2013-02-24 04:57:00,
2013-02-23 23:12:00,38.7,38.0,29.92,NNW,333,0.0,-999.0,96,-99.99,,,0.27,weatherlink.com 1.10,2013-02-24 05:12:00,
2013-02-23 23:27:00,38.3,37.0,29.92,East,85,0.0,-999.0,96,-99.99,,,0.27,weatherlink.com 1.10,2013-02-24 05:27:00,
2013-02-23 23:42:00,37.7,37.0,29.93,East,85,0.0,-999.0,96,-99.99,,,0.27,weatherlink.com 1.10,2013-02-24 05:42:00,
2013-02-23 23:57:00,37.4,36.0,29.94,East,85,0.0,-999.0,96,-99.99,,,0.27,weatherlink.com 1.10,2013-02-24 05:57:00,